Track LEMUR 2 LILLYJO now! 10-day predictions LEMUR 2 LILLYJO is classified as:
1 44396U 19038L 22142.88248470 .00019499 00000-0 93998-3 0 9992 2 44396 97.6182 112.1025 0020416 207.8995 152.1146 15.18573114159197